GW5255 Weather Reports


Display with metric or nautical units.
time (UTC)temp
F
wind
direction
speed
MPH
gust
MPH
rain 1hr
in
rain 24hr
in
rain mn
in
humidity
%
barometer
mb
20260505054429 53 72 0.0 1.0 0.00 0.00 0.00 93 1012.6
20260505053927 54 68 0.0 2.0 0.00 0.00 0.00 91 1012.6
20260505053424 53 95 0.0 0.0 0.00 0.00 0.00 92 1012.8
20260505052921 53 68 0.0 2.0 0.00 0.00 0.00 92 1012.4
20260505052418 54 96 2.0 2.0 0.00 0.00 0.00 92 1012.4
20260505051915 55 76 0.0 1.0 0.00 0.00 0.00 88 1012.6
20260505051412 55 88 1.0 2.0 0.00 0.00 0.00 90 1012.5
20260505050910 54 74 0.0 1.0 0.00 0.00 0.00 93 1012.4
20260505050408 54 107 0.0 0.0 0.00 0.00 0.00 93 1012.4
20260505041336 55 76 1.0 2.0 0.00 0.00 0.00 90 1011.9
20260505040833 55 90 1.0 2.0 0.00 0.00 0.00 91 1011.9
20260505040330 55 80 0.0 2.0 0.00 0.00 0.00 90 1011.8
20260505035827 56 97 0.0 0.0 0.00 0.00 0.00 90 1011.6
20260505035322 56 85 1.0 1.0 0.00 0.00 0.00 91 1011.6
20260505034820 56 86 0.0 0.0 0.00 0.00 0.00 90 1011.6
20260505034316 56 86 0.0 0.0 0.00 0.00 0.00 90 1011.5
20260505033814 56 80 0.0 0.0 0.00 0.00 0.00 90 1011.6
20260505033310 56 82 0.0 0.0 0.00 0.00 0.00 90 1011.5
20260505032809 56 82 0.0 0.0 0.00 0.00 0.00 91 1011.7
20260505032305 56 83 0.0 0.0 0.00 0.00 0.00 90 1011.5
20260505031802 57 85 0.0 0.0 0.00 0.00 0.00 87 1011.6
20260505031258 57 84 1.0 2.0 0.00 0.00 0.00 88 1011.5
20260505030757 57 90 0.0 1.0 0.00 0.00 0.00 85 1011.6
20260505030252 57 111 0.0 0.0 0.00 0.00 0.00 85 1011.5
20260505025747 58 92 0.0 0.0 0.00 0.00 0.00 87 1011.5
20260505025246 58 92 0.0 0.0 0.00 0.00 0.00 83 1011.4
20260505024743 57 92 0.0 0.0 0.00 0.00 0.00 85 1011.5
20260505024241 57 92 0.0 0.0 0.00 0.00 0.00 85 1011.4
20260505023738 58 92 0.0 0.0 0.00 0.00 0.00 85 1011.6
20260505023235 58 92 0.0 0.0 0.00 0.00 0.00 85 1011.3
20260505022732 58 92 0.0 0.0 0.00 0.00 0.00 85 1011.5
20260505022229 58 92 0.0 0.0 0.00 0.00 0.00 85 1011.4
20260505021726 58 92 0.0 0.0 0.00 0.00 0.00 84 1011.3
20260505021223 58 92 0.0 0.0 0.00 0.00 0.00 85 1011.4
20260505020718 58 92 0.0 0.0 0.00 0.00 0.00 84 1011.4
20260505020214 59 92 0.0 0.0 0.00 0.00 0.00 84 1011.3
20260505015712 59 92 0.0 0.0 0.00 0.00 0.00 82 1011.1
20260505015208 60 92 0.0 0.0 0.00 0.00 0.00 82 1011.1
20260505014705 60 92 0.0 0.0 0.00 0.00 0.00 80 1011.2
20260505014203 60 92 0.0 0.0 0.00 0.00 0.00 80 1011.2
20260505013659 61 92 1.0 1.0 0.00 0.00 0.00 80 1011.2
20260505013157 61 92 0.0 0.0 0.00 0.00 0.00 78 1011.3
20260505012655 62 92 0.0 0.0 0.00 0.00 0.00 78 1011.1
20260505012152 62 92 0.0 1.0 0.00 0.00 0.00 76 1011.2
20260505011652 62 99 0.0 0.0 0.00 0.00 0.00 74 1011.0
20260505011150 63 99 0.0 0.0 0.00 0.00 0.00 75 1011.1
20260505010645 63 99 0.0 0.0 0.00 0.00 0.00 73 1011.0
20260505010142 64 109 0.0 0.0 0.00 0.00 0.00 72 1011.0
20260505005638 64 113 0.0 0.0 0.00 0.00 0.00 70 1011.2
20260505005135 64 114 0.0 0.0 0.00 0.00 0.00 70 1011.0
20260505004632 65 114 0.0 0.0 0.00 0.00 0.00 70 1011.0
20260505004129 65 113 0.0 0.0 0.00 0.00 0.00 67 1010.8
20260505003626 66 114 0.0 0.0 0.00 0.00 0.00 67 1010.9
20260505003123 66 115 0.0 0.0 0.00 0.00 0.00 66 1010.7
20260505002619 67 207 1.0 1.0 0.00 0.00 0.00 68 1011.0
20260505002118 67 180 0.0 0.0 0.00 0.00 0.00 67 1011.2
20260505001614 67 153 0.0 1.0 0.00 0.00 0.00 65 1011.0
20260505001112 68 163 1.0 2.0 0.00 0.00 0.00 64 1011.0
20260505000609 68 141 0.0 0.0 0.00 0.00 0.00 64 1011.0
20260505000107 69 142 0.0 1.0 0.00 0.00 0.00 61 1011.1
20260504235603 69 205 0.0 0.0 0.00 0.00 0.00 62 1011.2
20260504235059 69 93 0.0 3.0 0.00 0.00 0.00 63 1011.1
20260504234557 69 240 0.0 1.0 0.00 0.00 0.00 66 1010.9
20260504234054 69 156 0.0 2.0 0.00 0.00 0.00 59 1010.9
20260504233549 70 191 0.0 1.0 0.00 0.00 0.00 65 1011.0
20260504233046 70 105 0.0 0.0 0.00 0.00 0.00 61 1011.0
20260504232543 71 92 0.0 1.0 0.00 0.00 0.00 63 1011.1
20260504232041 71 152 2.0 2.0 0.00 0.00 0.00 58 1010.8
20260504231537 73 206 3.0 3.0 0.00 0.00 0.00 59 1010.9
20260504231033 74 151 0.0 3.0 0.00 0.00 0.00 57 1010.9
20260504230530 74 61 1.0 2.0 0.00 0.00 0.00 55 1010.7
20260504230029 75 71 0.0 2.0 0.00 0.00 0.00 51 1010.9
20260504225525 75 160 0.0 3.0 0.00 0.00 0.00 56 1011.0
20260504225022 76 211 1.0 2.0 0.00 0.00 0.00 54 1010.9
20260504224519 76 27 1.0 2.0 0.00 0.00 0.00 52 1010.9
20260504224016 76 226 1.0 2.0 0.00 0.00 0.00 58 1011.1
20260504223513 75 185 2.0 3.0 0.00 0.00 0.00 57 1011.1
20260504223009 75 176 1.0 1.0 0.00 0.00 0.00 58 1011.2
20260504222506 76 207 2.0 2.0 0.00 0.00 0.00 55 1011.2
20260504222003 76 349 0.0 2.0 0.00 0.00 0.00 48 1011.1
20260504221500 75 24 0.0 3.0 0.00 0.00 0.00 54 1011.3
20260504220957 75 292 2.0 4.0 0.00 0.00 0.00 53 1011.1
20260504220453 76 208 1.0 2.0 0.00 0.00 0.00 54 1011.2
20260504215950 76 59 2.0 3.0 0.00 0.00 0.00 47 1011.3
20260504215447 76 91 1.0 6.0 0.00 0.00 0.00 50 1011.3
20260504214944 77 48 2.0 3.0 0.00 0.00 0.00 47 1011.1
20260504214440 78 28 4.0 6.0 0.00 0.00 0.00 48 1011.2
20260504213937 77 46 3.0 4.0 0.00 0.00 0.00 45 1011.3
20260504213433 77 39 1.0 6.0 0.00 0.00 0.00 47 1011.5
20260504212931 76 41 2.0 8.0 0.00 0.00 0.00 46 1011.4
20260504212426 77 27 3.0 4.0 0.00 0.00 0.00 45 1011.4
20260504211924 78 98 4.0 8.0 0.00 0.00 0.00 46 1011.4
20260504211420 77 65 5.0 8.0 0.00 0.00 0.00 48 1011.2
20260504210918 77 122 0.0 3.0 0.00 0.00 0.00 52 1011.3
20260504210414 76 14 0.0 1.0 0.00 0.00 0.00 49 1011.5
20260504205912 75 1 5.0 6.0 0.00 0.00 0.00 50 1011.4
20260504205409 77 252 3.0 4.0 0.00 0.00 0.00 50 1011.6
20260504204907 77 58 1.0 2.0 0.00 0.00 0.00 50 1011.7
20260504204405 76 62 3.0 6.0 0.00 0.00 0.00 51 1011.7
20260504203905 76 57 4.0 4.0 0.00 0.00 0.00 52 1011.6
20260504203401 75 58 1.0 4.0 0.00 0.00 0.00 54 1011.6
20260504202857 74 24 3.0 4.0 0.00 0.00 0.00 54 1011.8
20260504202354 75 27 6.0 8.0 0.00 0.00 0.00 52 1012.0
20260504201850 74 43 2.0 4.0 0.00 0.00 0.00 55 1011.9
20260504201348 74 36 7.0 9.0 0.00 0.00 0.00 52 1012.0
20260504200845 74 26 4.0 6.0 0.00 0.00 0.00 54 1012.0
20260504200342 74 33 4.0 6.0 0.00 0.00 0.00 54 1012.1
20260504195838 74 4 6.0 8.0 0.00 0.00 0.00 51 1012.2
20260504195334 74 77 1.0 3.0 0.00 0.00 0.00 54 1012.5
20260504194831 73 299 2.0 3.0 0.00 0.00 0.00 53 1012.4
20260504194327 73 319 4.0 4.0 0.00 0.00 0.00 54 1012.7
20260504193823 73 13 2.0 8.0 0.00 0.00 0.00 54 1012.6
20260504193321 73 36 4.0 6.0 0.00 0.00 0.00 58 1012.6
20260504192819 72 31 2.0 3.0 0.00 0.00 0.00 56 1012.6
20260504192317 71 55 3.0 6.0 0.00 0.00 0.00 56 1012.7
20260504191815 71 80 2.0 4.0 0.00 0.00 0.00 58 1012.9
20260504191312 70 347 4.0 9.0 0.00 0.00 0.00 58 1012.9
20260504190808 70 12 1.0 6.0 0.00 0.00 0.00 62 1013.2
20260504190304 70 61 3.0 7.0 0.00 0.00 0.00 65 1013.3
20260504185800 68 34 4.0 6.0 0.00 0.00 0.00 63 1013.1
20260504185258 67 60 3.0 4.0 0.00 0.00 0.00 69 1013.7
20260504184754 66 63 2.0 4.0 0.00 0.00 0.00 65 1013.9
20260504184249 66 124 2.0 2.0 0.00 0.00 0.00 66 1014.1
20260504183745 65 16 0.0 2.0 0.00 0.00 0.00 64 1014.3
20260504183243 67 22 1.0 10.0 0.00 0.00 0.00 61 1014.4
20260504182741 68 312 4.0 7.0 0.00 0.00 0.00 56 1014.6
20260504182238 68 18 5.0 8.0 0.00 0.00 0.00 56 1014.1
20260504181735 69 61 1.0 7.0 0.00 0.00 0.00 54 1013.8
20260504181232 70 32 2.0 4.0 0.00 0.00 0.00 52 1013.7
20260504180731 72 58 1.0 7.0 0.00 0.00 0.00 52 1013.3
20260504180230 72 21 3.0 8.0 0.00 0.00 0.00 51 1013.4
20260504175727 72 25 1.0 4.0 0.00 0.00 0.00 54 1013.1
20260504175223 72 29 3.0 4.0 0.00 0.00 0.00 57 1013.1
20260504174722 73 1 6.0 8.0 0.00 0.00 0.00 52 1013.1
20260504174219 72 62 2.0 8.0 0.00 0.00 0.00 54 1013.2
20260504173715 71 64 1.0 7.0 0.00 0.00 0.00 53 1013.3
20260504173213 70 120 1.0 7.0 0.00 0.00 0.00 55 1013.3
20260504172709 69 340 4.0 7.0 0.00 0.00 0.00 57 1013.3
20260504172205 68 321 3.0 3.0 0.00 0.00 0.00 60 1013.6
20260504171702 67 66 2.0 3.0 0.00 0.00 0.00 63 1013.6
20260504171159 68 99 4.0 6.0 0.00 0.00 0.00 57 1013.4
20260504170655 68 151 3.0 4.0 0.00 0.00 0.00 58 1013.7
20260504170153 68 39 2.0 6.0 0.00 0.00 0.00 56 1013.7
20260504160112 65 41 6.0 8.0 0.00 0.00 0.00 67 1014.7
20260504151045 63 38 5.0 8.0 0.00 0.00 0.00 69 1015.7
20260504150542 63 89 4.0 7.0 0.00 0.00 0.00 68 1015.7
20260504141008 56 64 2.0 4.0 0.00 0.00 0.00 78 1016.2
20260504140505 55 67 2.0 4.0 0.00 0.00 0.00 81 1016.5
20260504130424 56 131 2.0 7.0 0.00 0.00 0.00 67 1015.9
20260504110311 45 90 1.0 2.0 0.00 0.00 0.00 86 1015.7
20260504100229 45 124 1.0 3.0 0.00 0.00 0.00 82 1015.6
20260504081622 45 101 1.0 1.0 0.00 0.00 0.00 79 1016.3
20260504081118 45 93 1.0 2.0 0.00 0.00 0.00 80 1016.2
20260504080615 45 94 1.0 2.0 0.00 0.00 0.00 79 1016.1
20260504080111 45 90 1.0 2.0 0.00 0.00 0.00 79 1016.3